Regional Weather Roundup
Issued by NWS

Home | Current Version | Previous Version | Graphics & Text | Print | Product List | Glossary On
Versions: 1 2 3 4 5 6 7 8 9 10 11 12 13 14 15 16 17 18 19 20 21 22 23 24 25 26 27
000
ASUS45 KCYS 241710
RWRWY

WYOMING REGIONAL WEATHER ROUNDUP
NATIONAL WEATHER SERVICE CHEYENNE WY
1100 AM MDT SAT JUN 24 2017

NOTE:  "FAIR" INDICATES FEW OR NO CLOUDS BELOW 12,000 FEET
WITH NO SIGNIFICANT WEATHER AND/OR OBSTRUCTIONS TO VISIBILITY.

WYZ001-241800-
YELLOWSTONE NATIONAL PARK

CITY           SKY/WX    TMP DP  RH WIND       PRES   REMARKS
LK YELLOWSTONE   N/A     55  33  43 CALM      30.45S
W YELLOWSTONE  NOT AVBL

$$
WYZ002>013-054>058-071-098>099-241800-
NORTHERN WYOMING

CITY           SKY/WX    TMP DP  RH WIND       PRES   REMARKS
JACKSON        SUNNY     61  36  39 CALM      30.37F
CODY           FAIR      62  33  33 VRB5      30.38S
GREYBULL       FAIR      70  30  22 NW9       30.31F
WORLAND        FAIR      66  35  31 VRB5      30.33F
SHERIDAN       FAIR      69  37  30 N10G18    30.34S
BUFFALO        FAIR      64  36  35 N15G25    30.37R
GILLETTE       FAIR      65  34  31 N12G21    30.34R
NEWCASTLE      FAIR      61  30  31 NW9G18    30.34S

$$
WYZ014>020-022>026-101>103-241800-
CENTRAL WYOMING

CITY           SKY/WX    TMP DP  RH WIND       PRES   REMARKS
BIG PINEY      FAIR      61  32  33 S9        30.41F
PINEDALE       FAIR      59  32  36 CALM      30.42S
DUBOIS         FAIR      59  30  33 SE6       30.40S
LANDER         FAIR      62  33  33 NW5       30.36F
RIVERTON       FAIR      63  31  30 E8        30.37F
CASPER         FAIR      66  30  26 VRB6      30.36F
DOUGLAS        FAIR      67  33  28 VRB6      30.35S

$$
WYZ021-027>030-104>119-241800-
SOUTHERN WYOMING

CITY           SKY/WX    TMP DP  RH WIND       PRES   REMARKS
EVANSTON       FAIR      65  37  35 E6        30.39S
KEMMERER         N/A     63  32  31 SE6       30.42S
FORT BRIDGER   FAIR      64  32  30 E5        30.43S
ROCK SPRINGS   FAIR      63  28  26 CALM      30.40S
DIXON          FAIR      66  35  31 W3        30.38S
RAWLINS        FAIR      64  31  28 NE10      30.40S
SARATOGA       FAIR      63  34  34 NW8       30.40S
LARAMIE        FAIR      62  34  35 VRB7      30.38S
CHEYENNE       FAIR      63  35  35 E8        30.37S
TORRINGTON     FAIR      66  31  27 SW6       30.31S
PINE BLUFFS    FAIR      64  32  29 CALM      30.35R

$$




USA.gov is the U.S. government's official web portal to all federal, state and local government web resources and services.